CZ-6A DEB, 54491

Orbit data source: Space-Track

CZ-6A DEB, 54491 is space debris in SSO originally from a launch on Fri, 11 Nov 2022 UTC launched from the Taiyaun Space Center, China (TSC). Debris objects in space refer to the collection of defunct objects orbiting the Earth. Examples of debris include non-operational satellites, rocket bodies, and fragments generated from explosions, collisions, or faulty payload assembly.

Loading next visibility...
Identifier
54491, 2022-151HT
Orbit
SSO
Country
Flag of CNCN / PRC
Related business
Manufacturer
SAST
Mission
Spacecraft
Bus & Motor
Unknown
Mass
Unknown
Launch date (UTC)
2022-11-11 (4 years ago)
Launch vehicle
Unknown
Launch site
Taiyaun Space Center, China (TSC)
Object type
Payload
Rocket body
Debris
Shape & HBR
Unknown shape, 0.2 m
Radar Cross Section
Medium (>0.1 m² and <1 m²)

Expand to show TLE details & history
Last TLE update: 5 hours ago

TLE from 5 hours ago
0 CZ-6A DEB
1 54491U 22151HT  26254.75112999  .00000237  00000-0  15660-3 0  9999
2 54491  98.9133 261.8830 0109070  51.8002 309.2928 14.07862361196309
Epoch: 2026-09-11T18:01Z
TLE epoch observation values (Epoch: 2026-09-11T18:01:37.631Z)
Latitude
-0.00006°
Longitude
0.70622°
Altitude
820.058 km
Speed
7.468 km/s
True Right ascension
17h 27m 31s
True Declination
0° 00' 00"
Sunlit
Object was in daylight at epoch
Visualization orbit readout
Latitude
Unknown
Longitude
Unknown
Altitude
Unknown
Speed
Unknown
Apparent Right ascension
Unknown
Apparent Declination
Unknown
Sunlit
N/A
Visualization observer readout
Local Sidereal Time
15:39:01
Azimuth
Unknown
Elevation
Unknown
Doppler factor
Unknown
Orbital elements
Apogee altitude
942.869 km
Perigee altitude
784.891 km
Semi-major axis
7,242.017 km
Eccentricity
0.01091
Inclination
98.9133°
RAAN
261.883°
Arg. of periapsis
51.8002°
True anomaly
308.31714°
Mean anomaly
309.2928°
Eccentric anomaly
308.80581°
Mean motion
3.52171 °/min
Orbital period
102.22 mins
BSTAR
0.0001566
Loading maneuver chart data...
Computing Atmospheric mass density...
Loading historical data...
Loading historical data...
Loading historical data...
Loading historical data...
Loading historical data...
Loading historical data...
Loading historical data...

Documentation

Showing up to 5 results
|